Regional Weather Roundup
Issued by NWS

Home | Current Version | Previous Version | Graphics & Text | Print | Product List | Glossary On
Versions: 1 2 3 4 5 6 7 8 9 10 11 12 13 14 15 16 17 18 19 20 21 22 23 24 25 26 27 28 29 30 31 32 33 34 35 36 37 38 39 40 41 42 43 44 45 46 47 48 49 50
226
ASUS44 KMEG 241700
RWRTN
TENNESSEE HOURLY STATE WEATHER ROUNDUP
NATIONAL WEATHER SERVICE MEMPHIS TN
1100 AM CST FRI FEB 24 2017

TNZ002-004-019-021-049-052-054-088>092-241800-
WEST TENNESSEE

CITY           SKY/WX    TMP DP  RH WIND       PRES   REMARKS
MEMPHIS INTL   PTSUNNY   65  55  70 SW16G26   29.71R
NWS MEMPHIS      N/A     67 N/A N/A MISG        N/A
JACKSON        SUNNY     75  53  46 SW18G30   29.68R
UNION CITY     SUNNY     72  48  43 SW16      29.64R
PARIS          SUNNY     72  52  49 S24       29.65F
$$

TNZ008-025-027-028-033-062-065-066-241800-
NORTH MIDDLE TENNESSEE

CITY           SKY/WX    TMP DP  RH WIND       PRES   REMARKS
NASHVILLE      PTSUNNY   77  54  44 S23G33    29.74F
CLARKSVILLE    SUNNY     75  54  47 S18G31    29.66F
SMYRNA         PTSUNNY   75  58  55 S22G28    29.75F
CROSSVILLE     PTSUNNY   67  54  63 S12G22    29.85F
$$

TNZ061-075-076-078-094-096-097-241800-
SOUTH MIDDLE TENNESSEE

CITY           SKY/WX    TMP DP  RH WIND       PRES   REMARKS
TULLAHOMA      MOSUNNY   72  54  53 S15       29.81F
WINCHESTER     MOSUNNY   73  55  53 SW13G24   29.82F
MCMINNVILLE    SUNNY     73  55  53 S15       29.80F
COLUMBIA       MOSUNNY   73  61  64 S20       29.73S
SHELBYVILLE    PTSUNNY   73  59  60 S23       29.78F
$$

TNZ017-018-042-046-047-241800-
NORTHEAST TENNESSEE

CITY           SKY/WX    TMP DP  RH WIND       PRES   REMARKS
TRI CITIES     MOSUNNY   73  48  41 SW9       29.86F
$$

TNZ012-013-036-069-073-074-241800-
CENTRAL EAST TENNESSEE

CITY           SKY/WX    TMP DP  RH WIND       PRES   REMARKS
KNOXVILLE      PTSUNNY   73  52  47 S15G22    29.84F
OAK RIDGE      CLOUDY    71  53  52 VRB5      29.86F
GATLINBURG     SUNNY     72  52  49 VRB3      29.84F
$$

TNZ083-085-099-241800-
SOUTHEAST TENNESSEE

CITY           SKY/WX    TMP DP  RH WIND       PRES   REMARKS
CHATTANOOGA    PTSUNNY   73  56  54 S14G23    29.86F
$$

SKY/WX REPORTED AS FAIR MEANS FEW OR NO CLOUDS BELOW
12 THOUSAND FEET.





USA.gov is the U.S. government's official web portal to all federal, state and local government web resources and services.